| time (UTC) | temp F | wind direction | speed knots | gust knots | rain 1hr in | rain 24hr in | rain mn in | humidity % | barometer mb |
| 20260505011544 | 47 | 235 | 2.6 | 10.4 | 0.00 | 0.06 | 0.06 | 72 | 1007.7 |
| 20260505010024 | 47 | 246 | 2.6 | 8.7 | 0.00 | 0.06 | 0.06 | 72 | 1007.7 |
| 20260505004524 | 48 | 225 | 3.5 | 7.8 | 0.00 | 0.06 | 0.06 | 71 | 1007.4 |
| 20260505003023 | 48 | 239 | 1.7 | 6.1 | 0.00 | 0.06 | 0.06 | 70 | 1007.2 |
| 20260505001522 | 48 | 197 | 1.7 | 6.1 | 0.00 | 0.06 | 0.06 | 69 | 1007.2 |
| 20260505000021 | 48 | 237 | 1.7 | 7.0 | 0.00 | 0.06 | 0.06 | 69 | 1006.9 |
| 20260504234518 | 48 | 223 | 4.3 | 7.8 | 0.00 | 0.06 | 0.06 | 69 | 1006.8 |
| 20260504233017 | 48 | 224 | 3.5 | 12.2 | 0.00 | 0.06 | 0.06 | 70 | 1006.6 |
| 20260504231516 | 48 | 213 | 2.6 | 9.6 | 0.00 | 0.06 | 0.06 | 70 | 1006.7 |
| 20260504230015 | 48 | 185 | 1.7 | 7.0 | 0.00 | 0.06 | 0.06 | 70 | 1006.4 |
| 20260504224514 | 49 | 173 | 4.3 | 8.7 | 0.00 | 0.07 | 0.06 | 69 | 1006.1 |
| 20260504223013 | 49 | 181 | 2.6 | 8.7 | 0.00 | 0.07 | 0.06 | 69 | 1005.9 |
| 20260504221511 | 49 | 216 | 2.6 | 10.4 | 0.00 | 0.07 | 0.06 | 69 | 1005.9 |
| 20260504220010 | 50 | 249 | 7.0 | 13.9 | 0.00 | 0.07 | 0.06 | 68 | 1006.0 |
| 20260504214509 | 50 | 201 | 7.8 | 17.4 | 0.00 | 0.08 | 0.06 | 66 | 1005.7 |
| 20260504213007 | 51 | 240 | 3.5 | 16.5 | 0.00 | 0.08 | 0.06 | 64 | 1005.5 |
| 20260504211505 | 53 | 246 | 6.1 | 14.8 | 0.01 | 0.08 | 0.06 | 60 | 1005.2 |
| 20260504210007 | 54 | 205 | 5.2 | 15.6 | 0.01 | 0.08 | 0.06 | 57 | 1005.3 |
| 20260504204502 | 54 | 202 | 4.3 | 11.3 | 0.01 | 0.08 | 0.06 | 56 | 1005.2 |
| 20260504203105 | 56 | 242 | 4.3 | 13.0 | 0.01 | 0.08 | 0.06 | 51 | 1005.1 |
| 20260504201557 | 59 | 195 | 4.3 | 10.4 | 0.00 | 0.07 | 0.05 | 46 | 1004.7 |
| 20260504194603 | 61 | 200 | 11.3 | 19.1 | 0.00 | 0.08 | 0.05 | 32 | 1004.0 |
| 20260504193056 | 61 | 232 | 9.6 | 19.1 | 0.00 | 0.08 | 0.05 | 32 | 1004.0 |
| 20260504191608 | 61 | 243 | 10.4 | 19.1 | 0.00 | 0.08 | 0.05 | 32 | 1004.0 |
| 20260504190053 | 61 | 256 | 11.3 | 20.0 | 0.00 | 0.08 | 0.05 | 34 | 1003.8 |
| 20260504184552 | 61 | 268 | 14.8 | 20.9 | 0.00 | 0.09 | 0.05 | 32 | 1003.8 |
| 20260504183050 | 60 | 258 | 13.9 | 24.3 | 0.00 | 0.09 | 0.05 | 32 | 1003.9 |
| 20260504181554 | 60 | 256 | 13.9 | 21.7 | 0.00 | 0.09 | 0.05 | 32 | 1004.0 |
| 20260504180047 | 59 | 263 | 12.2 | 22.6 | 0.00 | 0.09 | 0.05 | 33 | 1003.9 |
| 20260504174545 | 59 | 248 | 12.2 | 26.9 | 0.00 | 0.09 | 0.05 | 36 | 1004.0 |
| 20260504173043 | 59 | 267 | 13.0 | 29.5 | 0.01 | 0.09 | 0.05 | 33 | 1004.1 |
| 20260504171548 | 58 | 254 | 13.0 | 25.2 | 0.01 | 0.09 | 0.05 | 34 | 1004.0 |
| 20260504081506 | 39 | 266 | 13.9 | 25.2 | 0.00 | 0.08 | 0.02 | 82 | 996.2 |
| 20260504044532 | 36 | 311 | 13.0 | 26.1 | 0.00 | 0.07 | 0.01 | 86 | 991.2 |
| 20260504043042 | 36 | 277 | 13.0 | 30.4 | 0.00 | 0.07 | 0.01 | 87 | 990.8 |
| 20260504041534 | 36 | 257 | 10.4 | 22.6 | 0.01 | 0.07 | 0.01 | 86 | 990.5 |
| 20260504040026 | 36 | 284 | 13.9 | 20.9 | 0.01 | 0.07 | 0.01 | 86 | 989.9 |
| 20260504034520 | 36 | 285 | 13.0 | 26.9 | 0.01 | 0.07 | 0.01 | 86 | 989.4 |
| 20260504033019 | 36 | 270 | 12.2 | 26.9 | 0.01 | 0.07 | 0.01 | 86 | 988.8 |
| 20260504031513 | 36 | 323 | 11.3 | 24.3 | 0.00 | 0.06 | 0.00 | 86 | 988.4 |
| 20260504030015 | 35 | 293 | 13.0 | 26.9 | 0.00 | 0.06 | 0.00 | 86 | 987.9 |
| 20260504024507 | 36 | 287 | 12.2 | 26.9 | 0.00 | 0.06 | 0.06 | 86 | 987.5 |
| 20260504023004 | 36 | 266 | 12.2 | 26.9 | 0.00 | 0.06 | 0.06 | 85 | 986.7 |
| 20260504021502 | 38 | 267 | 10.4 | 24.3 | 0.00 | 0.06 | 0.06 | 85 | 986.2 |
| 20260504020001 | 38 | 299 | 12.2 | 23.5 | 0.00 | 0.06 | 0.06 | 85 | 985.5 |
| 20260504014502 | 38 | 271 | 10.4 | 20.0 | 0.00 | 0.06 | 0.06 | 86 | 984.8 |
| 20260504013121 | 37 | 326 | 12.2 | 26.1 | 0.01 | 0.06 | 0.06 | 86 | 983.9 |